DAL3495 KASE-KLAX

Flight info

Callsign DAL3495
Flight time N/A
Altitude 32000
Route LINDZ JNC PEEWE Q98 HAKMN ANJLL4
Aircraft A20N/M-SDE2E3FGHIRWXY/LB1

Departure

Time 2026-04-22 01:28
Airport Aspen-Pitkin County Airport (Sardy Field) (KASE)

Arrival

Time N/A
Airport Los Angeles International Airport (KLAX)
Time Latitude Longitude Altitude Speed Heading
2026-04-22 01:12 39.21877 -106.86438 7798 ft 0 kts 75°
2026-04-22 01:19 39.21876 -106.86444 7798 ft 6 kts 75°
2026-04-22 01:19 39.21868 -106.86513 7797 ft 3 kts 102°
2026-04-22 01:20 39.21898 -106.86574 7782 ft 6 kts 145°
2026-04-22 01:20 39.21902 -106.86577 7783 ft 0 kts 145°
2026-04-22 01:21 39.21897 -106.86573 7781 ft 10 kts 146°
2026-04-22 01:21 39.21671 -106.86459 7812 ft 28 kts 159°
2026-04-22 01:21 39.21581 -106.86415 7819 ft 7 kts 160°
2026-04-22 01:21 39.21501 -106.86378 7823 ft 21 kts 159°
2026-04-22 01:22 39.21322 -106.86295 7834 ft 24 kts 161°
2026-04-22 01:22 39.21245 -106.86259 7840 ft 2 kts 169°
2026-04-22 01:22 39.21155 -106.86287 7849 ft 5 kts 217°
2026-04-22 01:22 39.21174 -106.86265 7849 ft 7 kts 227°
2026-04-22 01:23 39.21162 -106.86301 7848 ft 12 kts 249°
2026-04-22 01:23 39.21157 -106.86371 7846 ft 3 kts 275°
2026-04-22 01:23 39.21154 -106.86340 7847 ft 17 kts 290°
2026-04-22 01:23 39.21382 -106.86448 7830 ft 42 kts 349°
2026-04-22 01:24 39.21600 -106.86542 7819 ft 30 kts 345°
2026-04-22 01:24 39.21713 -106.86486 7806 ft 9 kts 55°
2026-04-22 01:24 39.21719 -106.86470 7808 ft 4 kts 70°
2026-04-22 01:24 39.21711 -106.86492 7807 ft 13 kts 91°
2026-04-22 01:25 39.21714 -106.86500 7807 ft 8 kts 111°
2026-04-22 01:25 39.21653 -106.86435 7813 ft 17 kts 160°
2026-04-22 01:25 39.21543 -106.86398 7819 ft 16 kts 163°
2026-04-22 01:25 39.21400 -106.86330 7830 ft 31 kts 160°
2026-04-22 01:26 39.21254 -106.86257 7839 ft 6 kts 173°
2026-04-22 01:26 39.21194 -106.86272 7844 ft 12 kts 205°
2026-04-22 01:26 39.21131 -106.86371 7846 ft 1 kts 255°
2026-04-22 01:26 39.21137 -106.86332 7848 ft 7 kts 268°
2026-04-22 01:27 39.21142 -106.86317 7849 ft 29 kts 292°
2026-04-22 01:27 39.21397 -106.86451 7833 ft 67 kts 344°
2026-04-22 01:27 39.22159 -106.86810 7769 ft 157 kts 341°
2026-04-22 01:27 39.23401 -106.87390 7976 ft 209 kts 340°
2026-04-22 01:28 39.24811 -106.87992 8740 ft 218 kts 345°
2026-04-22 01:28 39.26364 -106.88163 9643 ft 232 kts 359°
2026-04-22 01:28 39.28050 -106.88158 10027 ft 255 kts 358°
2026-04-22 01:28 39.29907 -106.88255 10317 ft 280 kts 354°
2026-04-22 01:29 39.31868 -106.88503 11211 ft 283 kts 351°
2026-04-22 01:29 39.33883 -106.88844 11865 ft 304 kts 350°
2026-04-22 01:29 39.36021 -106.89253 12730 ft 318 kts 349°
2026-04-22 01:29 39.38027 -106.89649 13188 ft 340 kts 349°
2026-04-22 01:30 39.40451 -106.90128 13627 ft 365 kts 349°
2026-04-22 01:30 39.43032 -106.90634 14196 ft 382 kts 350°
2026-04-22 01:30 39.45651 -106.91339 15043 ft 384 kts 339°
2026-04-22 01:30 39.48012 -106.92941 15563 ft 386 kts 321°
2026-04-22 01:31 39.49878 -106.95397 15795 ft 384 kts 303°
2026-04-22 01:31 39.51060 -106.98478 15882 ft 381 kts 286°
2026-04-22 01:31 39.51747 -107.01793 15884 ft 381 kts 281°
2026-04-22 01:31 39.52276 -107.05140 15874 ft 379 kts 278°
2026-04-22 01:32 39.52741 -107.08497 15868 ft 378 kts 278°
2026-04-22 01:32 39.53195 -107.11861 15851 ft 378 kts 277°
2026-04-22 01:32 39.53641 -107.15193 16037 ft 379 kts 277°
2026-04-22 01:32 39.53747 -107.18597 16500 ft 378 kts 261°
2026-04-22 01:33 39.53030 -107.21870 17228 ft 379 kts 245°
2026-04-22 01:33 39.52047 -107.25009 17975 ft 384 kts 246°
2026-04-22 01:33 39.51070 -107.28204 18667 ft 388 kts 246°
2026-04-22 01:33 39.50099 -107.31443 19353 ft 391 kts 246°
2026-04-22 01:34 39.49121 -107.34764 20084 ft 397 kts 247°
2026-04-22 01:34 39.48149 -107.38099 20826 ft 391 kts 247°
2026-04-22 01:34 39.47186 -107.41410 21594 ft 397 kts 247°
2026-04-22 01:34 39.46210 -107.44762 22376 ft 401 kts 247°
2026-04-22 01:35 39.45248 -107.48060 23166 ft 404 kts 246°
2026-04-22 01:35 39.44264 -107.51429 23901 ft 408 kts 246°
2026-04-22 01:35 39.43267 -107.54836 24591 ft 410 kts 246°
2026-04-22 01:35 39.42244 -107.58329 25314 ft 412 kts 246°
2026-04-22 01:36 39.41226 -107.61799 26046 ft 413 kts 246°
2026-04-22 01:36 39.40226 -107.65201 26770 ft 413 kts 246°
2026-04-22 01:36 39.39187 -107.68734 27545 ft 412 kts 246°
2026-04-22 01:36 39.38183 -107.72147 28314 ft 398 kts 246°
2026-04-22 01:37 39.37247 -107.75326 29082 ft 391 kts 246°
2026-04-22 01:37 39.36336 -107.78410 29852 ft 388 kts 246°
2026-04-22 01:37 39.35392 -107.81595 30571 ft 385 kts 246°
2026-04-22 01:37 39.34449 -107.84776 31249 ft 383 kts 246°
2026-04-22 01:38 39.33489 -107.88005 31633 ft 390 kts 246°
2026-04-22 01:38 39.32499 -107.91331 31754 ft 403 kts 247°
2026-04-22 01:38 39.31478 -107.94761 31766 ft 417 kts 247°
2026-04-22 01:38 39.30417 -107.98322 31753 ft 432 kts 247°
2026-04-22 01:39 39.29331 -108.01968 31736 ft 445 kts 247°
2026-04-22 01:39 39.28194 -108.05780 31716 ft 452 kts 247°
2026-04-22 01:39 39.25937 -108.13337 31712 ft 453 kts 247°
2026-04-22 01:40 39.23690 -108.20835 31727 ft 452 kts 247°
2026-04-22 01:40 39.21438 -108.28325 31753 ft 452 kts 247°
2026-04-22 01:41 39.19167 -108.35857 31777 ft 451 kts 247°
2026-04-22 01:41 39.16921 -108.43282 31807 ft 451 kts 247°
2026-04-22 01:42 39.14654 -108.50759 31803 ft 451 kts 247°
2026-04-22 01:42 39.12377 -108.58247 31801 ft 451 kts 247°
2026-04-22 01:43 39.10051 -108.65871 31791 ft 461 kts 247°
2026-04-22 01:43 39.07666 -108.73602 31759 ft 467 kts 245°
2026-04-22 01:44 39.04538 -108.80774 31727 ft 466 kts 234°
2026-04-22 01:44 39.00341 -108.87161 31701 ft 465 kts 227°
2026-04-22 01:45 38.98126 -108.90257 31674 ft 452 kts 227°
2026-04-22 01:45 38.96085 -108.93125 31668 ft 435 kts 227°
2026-04-22 01:45 38.92030 -108.98826 31674 ft 436 kts 227°
2026-04-22 01:46 38.87946 -109.04551 31671 ft 435 kts 227°
2026-04-22 01:46 38.83842 -109.10288 31671 ft 437 kts 227°
2026-04-22 01:47 38.79752 -109.15996 31675 ft 434 kts 227°
2026-04-22 01:47 38.75691 -109.21652 31674 ft 434 kts 227°
2026-04-22 01:48 38.71605 -109.27332 31680 ft 434 kts 227°
2026-04-22 01:48 38.67507 -109.33019 31683 ft 434 kts 227°
2026-04-22 01:49 38.63416 -109.38688 31687 ft 434 kts 227°
2026-04-22 01:49 38.59318 -109.44355 31698 ft 434 kts 227°
2026-04-22 01:50 38.55237 -109.49988 31699 ft 434 kts 227°
2026-04-22 01:50 38.51126 -109.55652 31694 ft 434 kts 227°
2026-04-22 01:51 38.47022 -109.61297 31684 ft 434 kts 227°
2026-04-22 01:51 38.42914 -109.66936 31670 ft 434 kts 227°
2026-04-22 01:52 38.38807 -109.72564 31666 ft 433 kts 227°
2026-04-22 01:52 38.34733 -109.78136 31669 ft 432 kts 227°
2026-04-22 01:53 38.30633 -109.83736 31663 ft 432 kts 227°
2026-04-22 01:53 38.26526 -109.89334 31663 ft 432 kts 227°
2026-04-22 01:54 38.22430 -109.94908 31662 ft 431 kts 227°
2026-04-22 01:54 38.18333 -110.00472 31667 ft 430 kts 227°
2026-04-22 01:55 38.14264 -110.05989 31666 ft 431 kts 227°
2026-04-22 01:55 38.10168 -110.11534 31663 ft 430 kts 227°
2026-04-22 01:56 38.06080 -110.17059 31654 ft 429 kts 227°
2026-04-22 01:56 38.01988 -110.22577 31655 ft 429 kts 227°
2026-04-22 01:57 37.97907 -110.28072 31664 ft 429 kts 227°
2026-04-22 01:57 37.93822 -110.33563 31649 ft 428 kts 227°
2026-04-22 01:58 37.89736 -110.39046 31642 ft 428 kts 227°
2026-04-22 01:58 37.85652 -110.44517 31643 ft 427 kts 227°
2026-04-22 01:59 37.81571 -110.49975 31635 ft 428 kts 227°
2026-04-22 01:59 37.77489 -110.55427 31638 ft 426 kts 227°
2026-04-22 02:00 37.73417 -110.60854 31636 ft 426 kts 227°
2026-04-22 02:00 37.69347 -110.66269 31636 ft 425 kts 227°
2026-04-22 02:01 37.65247 -110.71715 31635 ft 434 kts 227°
2026-04-22 02:01 37.61100 -110.77213 31634 ft 435 kts 226°
2026-04-22 02:02 37.56937 -110.82722 31632 ft 434 kts 226°
2026-04-22 02:02 37.52932 -110.88014 31634 ft 432 kts 227°
2026-04-22 02:03 37.48773 -110.93500 31635 ft 433 kts 226°
2026-04-22 02:03 37.44624 -110.98963 31636 ft 431 kts 226°
2026-04-22 02:04 37.38416 -111.07119 31642 ft 430 kts 226°
2026-04-22 02:05 37.34315 -111.12496 31643 ft 428 kts 226°
2026-04-22 02:05 37.30195 -111.17891 31643 ft 428 kts 226°
2026-04-22 02:06 37.26074 -111.23274 31645 ft 427 kts 226°
2026-04-22 02:06 37.21961 -111.28639 31664 ft 426 kts 226°
2026-04-22 02:07 37.17886 -111.33947 31690 ft 425 kts 226°
2026-04-22 02:07 37.13787 -111.39276 31714 ft 424 kts 226°
2026-04-22 02:08 37.09692 -111.44592 31736 ft 423 kts 226°
2026-04-22 02:08 37.05603 -111.49891 31755 ft 423 kts 226°
2026-04-22 02:09 37.01507 -111.55193 31761 ft 423 kts 226°
2026-04-22 02:09 36.97737 -111.60814 31757 ft 423 kts 235°
2026-04-22 02:10 36.95064 -111.67314 31747 ft 426 kts 247°
2026-04-22 02:10 36.93611 -111.74546 31733 ft 432 kts 258°
2026-04-22 02:11 36.92607 -111.81882 31721 ft 425 kts 246°
2026-04-22 02:11 36.90043 -111.88490 31719 ft 422 kts 241°
2026-04-22 02:12 36.87588 -111.95109 31734 ft 423 kts 244°
2026-04-22 02:12 36.85359 -112.01899 31746 ft 423 kts 246°
2026-04-22 02:13 36.83772 -112.07729 31760 ft 427 kts 255°
2026-04-22 02:13 36.82923 -112.16295 31768 ft 424 kts 249°
2026-04-22 02:13 36.81752 -112.19634 31777 ft 419 kts 238°
2026-04-22 02:14 36.80010 -112.22533 31777 ft 417 kts 226°
2026-04-22 02:14 36.75416 -112.26855 31772 ft 418 kts 217°
2026-04-22 02:15 36.70976 -112.31469 31780 ft 417 kts 225°
2026-04-22 02:15 36.66999 -112.36695 31774 ft 416 kts 228°
2026-04-22 02:16 36.63144 -112.42056 31776 ft 415 kts 228°
2026-04-22 02:16 36.59297 -112.47402 31773 ft 414 kts 228°
2026-04-22 02:17 36.55445 -112.52725 31752 ft 413 kts 228°
2026-04-22 02:17 36.52257 -112.57121 31756 ft 413 kts 228°
2026-04-22 02:18 36.48396 -112.62436 31750 ft 412 kts 228°
2026-04-22 02:18 36.44556 -112.67715 31745 ft 413 kts 228°
2026-04-22 02:19 36.40697 -112.73010 31733 ft 412 kts 228°
2026-04-22 02:19 36.36847 -112.78285 31739 ft 413 kts 228°
2026-04-22 02:20 36.33013 -112.83529 31736 ft 413 kts 228°
2026-04-22 02:20 36.29155 -112.88798 31737 ft 412 kts 228°
2026-04-22 02:21 36.25280 -112.94083 31734 ft 416 kts 228°
2026-04-22 02:21 36.21416 -112.99345 31736 ft 413 kts 228°
2026-04-22 02:22 36.17550 -113.04598 31719 ft 412 kts 228°
2026-04-22 02:22 36.13711 -113.09811 31724 ft 412 kts 228°
2026-04-22 02:23 36.09843 -113.15052 31718 ft 413 kts 228°
2026-04-22 02:23 36.05973 -113.20290 31723 ft 413 kts 228°
2026-04-22 02:24 36.02106 -113.25517 31716 ft 412 kts 228°
2026-04-22 02:24 35.98234 -113.30739 31704 ft 412 kts 228°
2026-04-22 02:25 35.94385 -113.35923 31711 ft 412 kts 228°
2026-04-22 02:25 35.90494 -113.41154 31704 ft 410 kts 228°
2026-04-22 02:26 35.86659 -113.46310 31694 ft 411 kts 228°
2026-04-22 02:26 35.82798 -113.51483 31683 ft 410 kts 228°
2026-04-22 02:27 35.78925 -113.56668 31678 ft 412 kts 228°
2026-04-22 02:27 35.75048 -113.61846 31682 ft 411 kts 228°
2026-04-22 02:28 35.71177 -113.67011 31673 ft 410 kts 228°
2026-04-22 02:28 35.67300 -113.72176 31667 ft 410 kts 228°
2026-04-22 02:29 35.63428 -113.77326 31673 ft 409 kts 228°
2026-04-22 02:29 35.59586 -113.82430 31665 ft 410 kts 228°
2026-04-22 02:30 35.55712 -113.87567 31690 ft 410 kts 228°
2026-04-22 02:30 35.51841 -113.92692 31710 ft 409 kts 228°
2026-04-22 02:31 35.47962 -113.97818 31735 ft 409 kts 228°
2026-04-22 02:31 35.44090 -114.02930 31751 ft 409 kts 228°
2026-04-22 02:32 35.40234 -114.08011 31765 ft 411 kts 228°
2026-04-22 02:32 35.36392 -114.13064 31754 ft 408 kts 228°
2026-04-22 02:33 35.32530 -114.18138 31766 ft 408 kts 228°
2026-04-22 02:33 35.28637 -114.23246 31730 ft 408 kts 228°
2026-04-22 02:34 35.24764 -114.28320 31676 ft 408 kts 228°
2026-04-22 02:34 35.20892 -114.33385 31667 ft 407 kts 228°
2026-04-22 02:35 35.17019 -114.38445 31669 ft 408 kts 228°
2026-04-22 02:35 35.13168 -114.43466 31674 ft 407 kts 228°
2026-04-22 02:36 35.09297 -114.48507 31674 ft 407 kts 228°
2026-04-22 02:36 35.05424 -114.53544 31672 ft 407 kts 228°
2026-04-22 02:37 35.01549 -114.58576 31683 ft 407 kts 228°
2026-04-22 02:37 34.97667 -114.63609 31660 ft 407 kts 229°
2026-04-22 02:38 34.93815 -114.68596 31702 ft 407 kts 229°
2026-04-22 02:38 34.89941 -114.73603 31729 ft 407 kts 228°
2026-04-22 02:39 34.86058 -114.78617 31707 ft 407 kts 228°
2026-04-22 02:39 34.82171 -114.83625 31714 ft 407 kts 228°
2026-04-22 02:40 34.78342 -114.88554 31701 ft 408 kts 228°
2026-04-22 02:40 34.74448 -114.93558 31706 ft 408 kts 228°
2026-04-22 02:41 34.70568 -114.98537 31702 ft 408 kts 228°
2026-04-22 02:41 34.66660 -115.03545 31703 ft 408 kts 228°
2026-04-22 02:42 34.62751 -115.08548 31706 ft 408 kts 228°
2026-04-22 02:42 34.58863 -115.13515 31716 ft 408 kts 228°
2026-04-22 02:43 34.54969 -115.18484 31705 ft 408 kts 228°
2026-04-22 02:43 34.51078 -115.23442 31705 ft 408 kts 228°
2026-04-22 02:44 34.47167 -115.28416 31727 ft 408 kts 228°
2026-04-22 02:44 34.43257 -115.33383 31727 ft 408 kts 228°
2026-04-22 02:45 34.39336 -115.38356 31718 ft 408 kts 228°
2026-04-22 02:45 34.35424 -115.43312 31726 ft 407 kts 228°
2026-04-22 02:46 34.31544 -115.48219 31736 ft 408 kts 228°
2026-04-22 02:46 34.27650 -115.53141 31735 ft 407 kts 228°
2026-04-22 02:47 34.24063 -115.57629 31742 ft 408 kts 226°
2026-04-22 02:47 34.19522 -115.61785 31746 ft 414 kts 215°
2026-04-22 02:48 34.14234 -115.64704 31760 ft 421 kts 207°
2026-04-22 02:48 34.08769 -115.67268 31760 ft 421 kts 207°
2026-04-22 02:49 34.03297 -115.69854 31769 ft 423 kts 207°
2026-04-22 02:49 33.97830 -115.72429 31785 ft 422 kts 207°
2026-04-22 02:50 33.92392 -115.74988 31784 ft 424 kts 207°
2026-04-22 02:50 33.86903 -115.77646 31787 ft 425 kts 208°
2026-04-22 02:51 33.81434 -115.80349 31790 ft 426 kts 208°
2026-04-22 02:51 33.75930 -115.83048 31790 ft 428 kts 208°
2026-04-22 02:52 33.70452 -115.85570 31717 ft 418 kts 206°
2026-04-22 02:52 33.64983 -115.87877 31725 ft 421 kts 205°
2026-04-22 02:53 33.59361 -115.90046 31782 ft 420 kts 204°
2026-04-22 02:53 33.56641 -115.91189 31562 ft 409 kts 209°
2026-04-22 02:53 33.54179 -115.92749 30764 ft 403 kts 218°
2026-04-22 02:53 33.51966 -115.94778 29626 ft 402 kts 225°
2026-04-22 02:54 33.49992 -115.97159 28189 ft 404 kts 232°
2026-04-22 02:54 33.48293 -115.99863 26652 ft 409 kts 238°
2026-04-22 02:54 33.46695 -116.02711 25409 ft 412 kts 237°
2026-04-22 02:54 33.45091 -116.05510 24699 ft 402 kts 237°
2026-04-22 02:55 33.43527 -116.08209 24284 ft 386 kts 237°
2026-04-22 02:55 33.42024 -116.10791 23848 ft 372 kts 237°
2026-04-22 02:55 33.40557 -116.13310 23143 ft 366 kts 237°
2026-04-22 02:55 33.39116 -116.15789 22351 ft 362 kts 236°
2026-04-22 02:56 33.37682 -116.18254 21575 ft 358 kts 236°
2026-04-22 02:56 33.36277 -116.20669 20833 ft 354 kts 236°
2026-04-22 02:56 33.34851 -116.22926 20151 ft 352 kts 230°
2026-04-22 02:56 33.33468 -116.24567 19573 ft 352 kts 223°
2026-04-22 02:57 33.31540 -116.26249 18894 ft 352 kts 214°
2026-04-22 02:57 33.29363 -116.27597 18202 ft 351 kts 209°
2026-04-22 02:57 33.27189 -116.28855 17431 ft 355 kts 209°